When you browse on this site, cookies collect data to enhance your experience and personalize the content and advertising you see.
Visit our Privacy Policy to learn more. By continuing to use the site, you agree to this use of cookies and data.
  • In Österreich
  • Länderverzeichnis
  • Für 7 Tage
  • Wassertemperatur
  • Satellitenkarten
  • Wetterkarte
  • News
  • Widgets
  • user-avatar
    Anmelden

    Stündliche Wetter Berezhcy

    Heute, 23 Juli, Dienstag

    Zeit Temperatur Niederschläge Wind Luftdruck Luftfeuchtigkeit
    00:00 +16°C° 0 mm 3 m/S 751 mmHg 95%
    01:00 +14°C° 0 mm 3 m/S 750 mmHg 96%
    02:00 +14°C° 0 mm 3 m/S 750 mmHg 97%
    03:00 +13°C° 0 mm 3 m/S 750 mmHg 96%
    04:00 +13°C° 0 mm 3 m/S 750 mmHg 96%
    05:00 +12°C° 0 mm 3 m/S 750 mmHg 95%
    06:00 +13°C° 0 mm 3 m/S 750 mmHg 92%
    07:00 +14°C° 0 mm 3 m/S 750 mmHg 89%
    08:00 +15°C° 0 mm 4 m/S 750 mmHg 85%
    09:00 +17°C° 0 mm 4 m/S 750 mmHg 82%
    10:00 +18°C° 0 mm 4 m/S 750 mmHg 79%
    11:00 +19°C° 0 mm 4 m/S 750 mmHg 76%
    12:00 +19°C° 0.5 mm 4 m/S 749 mmHg 78%
    13:00 +19°C° 0.5 mm 5 m/S 749 mmHg 80%
    14:00 +19°C° 0.5 mm 5 m/S 749 mmHg 82%
    15:00 +19°C° 0.3 mm 4 m/S 749 mmHg 84%
    16:00 +18°C° 0.3 mm 3 m/S 749 mmHg 87%
    17:00 +18°C° 0.3 mm 3 m/S 749 mmHg 89%
    18:00 +18°C° 0 mm 2 m/S 749 mmHg 90%
    19:00 +17°C° 0 mm 2 m/S 749 mmHg 92%
    20:00 +17°C° 0 mm 2 m/S 748 mmHg 93%
    21:00 +17°C° 0 mm 2 m/S 748 mmHg 93%
    22:00 +16°C° 0 mm 3 m/S 749 mmHg 94%
    23:00 +16°C° 0 mm 3 m/S 749 mmHg 95%

    Morgen, 24 Juli, Mittwoch

    Zeit Temperatur Niederschläge Wind Luftdruck Luftfeuchtigkeit
    00:00 +16°C° 0 mm 3 m/S 748 mmHg 95%
    01:00 +14°C° 0 mm 3 m/S 748 mmHg 96%
    02:00 +14°C° 0 mm 3 m/S 748 mmHg 96%
    03:00 +14°C° 0 mm 3 m/S 748 mmHg 97%
    04:00 +14°C° 0 mm 3 m/S 748 mmHg 97%
    05:00 +14°C° 0 mm 3 m/S 748 mmHg 97%
    06:00 +16°C° 0 mm 3 m/S 748 mmHg 92%
    07:00 +18°C° 0 mm 4 m/S 748 mmHg 87%
    08:00 +19°C° 0 mm 4 m/S 748 mmHg 81%
    09:00 +21°C° 0 mm 4 m/S 749 mmHg 74%
    10:00 +22°C° 0 mm 4 m/S 749 mmHg 67%
    11:00 +25°C° 0 mm 5 m/S 749 mmHg 59%
    12:00 +25°C° 0.1 mm 5 m/S 749 mmHg 57%
    13:00 +26°C° 0.1 mm 5 m/S 749 mmHg 54%
    14:00 +26°C° 0.1 mm 5 m/S 749 mmHg 52%
    15:00 +26°C° 0 mm 5 m/S 749 mmHg 54%
    16:00 +26°C° 0 mm 5 m/S 749 mmHg 55%
    17:00 +25°C° 0 mm 4 m/S 749 mmHg 57%
    18:00 +23°C° 0 mm 4 m/S 749 mmHg 64%
    19:00 +21°C° 0 mm 3 m/S 749 mmHg 72%
    20:00 +19°C° 0 mm 2 m/S 749 mmHg 79%
    21:00 +18°C° 0 mm 2 m/S 749 mmHg 82%
    22:00 +17°C° 0 mm 2 m/S 750 mmHg 85%
    23:00 +16°C° 0 mm 2 m/S 750 mmHg 88%

    übermorgen, 25 Juli, Donnerstag

    Zeit Temperatur Niederschläge Wind Luftdruck Luftfeuchtigkeit
    00:00 +16°C° 0 mm 2 m/S 750 mmHg 88%
    01:00 +15°C° 0 mm 2 m/S 750 mmHg 88%
    02:00 +15°C° 0 mm 2 m/S 750 mmHg 88%
    03:00 +15°C° 0 mm 2 m/S 750 mmHg 88%
    04:00 +14°C° 0 mm 2 m/S 751 mmHg 88%
    05:00 +14°C° 0 mm 2 m/S 751 mmHg 87%
    06:00 +16°C° 0 mm 2 m/S 751 mmHg 81%
    07:00 +18°C° 0 mm 3 m/S 751 mmHg 75%
    08:00 +20°C° 0 mm 3 m/S 751 mmHg 69%
    09:00 +21°C° 0.1 mm 3 m/S 750 mmHg 64%
    10:00 +23°C° 0.1 mm 4 m/S 750 mmHg 60%
    11:00 +25°C° 0.1 mm 4 m/S 750 mmHg 55%
    12:00 +25°C° 0.3 mm 4 m/S 750 mmHg 56%
    13:00 +26°C° 0.3 mm 5 m/S 750 mmHg 56%
    14:00 +26°C° 0.3 mm 5 m/S 749 mmHg 57%
    15:00 +25°C° 0.6 mm 5 m/S 749 mmHg 64%
    16:00 +23°C° 0.6 mm 4 m/S 749 mmHg 71%
    17:00 +22°C° 0.6 mm 4 m/S 749 mmHg 78%
    18:00 +21°C° 0.2 mm 3 m/S 749 mmHg 82%
    19:00 +19°C° 0.2 mm 3 m/S 748 mmHg 86%
    20:00 +18°C° 0.2 mm 2 m/S 748 mmHg 90%
    21:00 +18°C° 0 mm 2 m/S 748 mmHg 92%
    22:00 +17°C° 0 mm 2 m/S 748 mmHg 93%
    23:00 +16°C° 0 mm 2 m/S 748 mmHg 95%

    26 Juli, Freitag

    Zeit Temperatur Niederschläge Wind Luftdruck Luftfeuchtigkeit
    00:00 +16°C° 0 mm 2 m/S 748 mmHg 96%
    01:00 +15°C° 0 mm 2 m/S 748 mmHg 96%
    02:00 +15°C° 0 mm 2 m/S 748 mmHg 97%
    03:00 +14°C° 0 mm 2 m/S 748 mmHg 97%
    04:00 +14°C° 0 mm 2 m/S 748 mmHg 97%
    05:00 +14°C° 0 mm 2 m/S 748 mmHg 98%
    06:00 +15°C° 0 mm 2 m/S 747 mmHg 95%
    07:00 +16°C° 0 mm 2 m/S 747 mmHg 92%
    08:00 +18°C° 0 mm 2 m/S 747 mmHg 89%
    09:00 +18°C° 0.2 mm 3 m/S 747 mmHg 88%
    10:00 +18°C° 0.2 mm 3 m/S 747 mmHg 87%
    11:00 +18°C° 0.2 mm 3 m/S 747 mmHg 86%
    12:00 +20°C° 0.1 mm 3 m/S 747 mmHg 81%
    13:00 +21°C° 0.1 mm 3 m/S 747 mmHg 75%
    14:00 +23°C° 0.1 mm 2 m/S 747 mmHg 69%
    15:00 +23°C° 0.4 mm 2 m/S 747 mmHg 71%
    16:00 +22°C° 0.4 mm 3 m/S 747 mmHg 74%
    17:00 +22°C° 0.4 mm 3 m/S 746 mmHg 76%
    18:00 +21°C° 0.4 mm 3 m/S 747 mmHg 82%
    19:00 +19°C° 0.4 mm 2 m/S 747 mmHg 88%
    20:00 +18°C° 0.4 mm 2 m/S 747 mmHg 94%
    21:00 +17°C° 0 mm 2 m/S 747 mmHg 95%
    22:00 +17°C° 0 mm 2 m/S 747 mmHg 96%
    23:00 +16°C° 0 mm 2 m/S 747 mmHg 97%

    27 Juli, Samstag

    Zeit Temperatur Niederschläge Wind Luftdruck Luftfeuchtigkeit
    00:00 +16°C° 0 mm 2 m/S 747 mmHg 97%
    01:00 +16°C° 0 mm 2 m/S 747 mmHg 97%
    02:00 +16°C° 0 mm 2 m/S 747 mmHg 97%
    03:00 +16°C° 0 mm 2 m/S 747 mmHg 97%
    04:00 +16°C° 0 mm 2 m/S 747 mmHg 97%
    05:00 +15°C° 0 mm 2 m/S 748 mmHg 98%
    06:00 +17°C° 0 mm 3 m/S 748 mmHg 96%
    07:00 +18°C° 0 mm 3 m/S 748 mmHg 94%
    08:00 +19°C° 0 mm 3 m/S 748 mmHg 92%
    09:00 +20°C° 0.3 mm 4 m/S 748 mmHg 87%
    10:00 +21°C° 0.3 mm 4 m/S 748 mmHg 83%
    11:00 +21°C° 0.3 mm 5 m/S 748 mmHg 78%
    12:00 +22°C° 0.1 mm 5 m/S 748 mmHg 76%
    13:00 +22°C° 0.1 mm 5 m/S 748 mmHg 74%
    14:00 +22°C° 0.1 mm 4 m/S 748 mmHg 72%
    15:00 +22°C° 0 mm 4 m/S 748 mmHg 72%
    16:00 +22°C° 0 mm 3 m/S 747 mmHg 73%
    17:00 +22°C° 0 mm 3 m/S 747 mmHg 74%
    18:00 +21°C° 0.3 mm 2 m/S 747 mmHg 80%
    19:00 +21°C° 0.3 mm 2 m/S 747 mmHg 85%
    20:00 +20°C° 0.3 mm 2 m/S 747 mmHg 90%
    21:00 +20°C° 0.1 mm 2 m/S 747 mmHg 92%
    22:00 +19°C° 0.1 mm 2 m/S 747 mmHg 93%
    23:00 +19°C° 0.1 mm 2 m/S 747 mmHg 95%

    28 Juli, Sonntag

    Zeit Temperatur Niederschläge Wind Luftdruck Luftfeuchtigkeit
    00:00 +18°C° 0 mm 2 m/S 747 mmHg 95%
    01:00 +18°C° 0 mm 2 m/S 747 mmHg 96%
    02:00 +18°C° 0 mm 2 m/S 747 mmHg 97%
    03:00 +18°C° 0 mm 2 m/S 747 mmHg 97%
    04:00 +17°C° 0 mm 2 m/S 747 mmHg 97%
    05:00 +17°C° 0 mm 2 m/S 747 mmHg 97%
    06:00 +19°C° 0 mm 2 m/S 747 mmHg 93%
    07:00 +20°C° 0 mm 2 m/S 747 mmHg 90%
    08:00 +23°C° 0 mm 2 m/S 747 mmHg 86%
    09:00 +24°C° 0 mm 3 m/S 747 mmHg 77%
    10:00 +26°C° 0 mm 3 m/S 748 mmHg 69%
    11:00 +28°C° 0 mm 3 m/S 748 mmHg 61%
    12:00 +28°C° 0 mm 3 m/S 747 mmHg 58%
    13:00 +29°C° 0 mm 3 m/S 747 mmHg 55%
    14:00 +30°C° 0 mm 3 m/S 747 mmHg 52%
    15:00 +30°C° 0 mm 3 m/S 746 mmHg 53%
    16:00 +29°C° 0 mm 3 m/S 746 mmHg 55%
    17:00 +29°C° 0 mm 2 m/S 746 mmHg 56%
    18:00 +27°C° 0 mm 2 m/S 746 mmHg 63%
    19:00 +25°C° 0 mm 2 m/S 746 mmHg 71%
    20:00 +23°C° 0 mm 1 m/S 746 mmHg 78%
    21:00 +23°C° 0 mm 1 m/S 746 mmHg 81%
    22:00 +22°C° 0 mm 1 m/S 746 mmHg 84%
    23:00 +20°C° 0 mm 2 m/S 747 mmHg 86%
    Mehr zeigen